Regional Weather Roundup
Issued by NWS Green Bay, WI

Home | Current Version | Previous Version | Graphics & Text | Print | Product List | Glossary Off
Versions: 1 2 3 4 5 6 7 8 9 10 11 12 13 14 15 16 17 18 19 20 21 22 23 24 25 26 27 28 29 30 31 32 33 34 35 36 37 38 39 40 41 42 43 44 45 46 47 48 49 50

000
ASUS43 KGRB 291201
RWRGRB

NORTH-CENTRAL AND NORTHEAST WISCONSIN REGIONAL WEATHER ROUNDUP
NATIONAL WEATHER SERVICE GREEN BAY WI
700 AM CDT SAT AUG 29 2015

WIZ005-009-010>012-018-019-291300-
NORTH CENTRAL WISCONSIN

CITY           SKY/WX    TMP DP  RH WIND       PRES   REMARKS
IRONWOOD       MOCLDY    57  54  88 S9        29.96R
MANITOWISH WTR NOT AVBL
ARBOR VITAE    NOT AVBL
EAGLE RIVER    NOT AVBL
LAND O LAKES   NOT AVBL
RHINELANDER    MOCLDY    54  52  93 S6        30.09F
PHILLIPS       CLOUDY    50  50 100 S6        30.07F
ANTIGO         NOT AVBL
TOMAHAWK       NOT AVBL
MERRILL        CLOUDY    55  55 100 CALM      30.12R
$$

WIZ013-073-291300-
NORTHEAST WISCONSIN

CITY           SKY/WX    TMP DP  RH WIND       PRES   REMARKS
IRON MOUNTAIN  CLEAR     56  54  93 S6        30.06R
MARINETTE      CLOUDY    59  54  82 S3        30.08F
$$

WIZ017-030-035>037-045-291300-
CENTRAL WISCONSIN

CITY           SKY/WX    TMP DP  RH WIND       PRES   REMARKS
MEDFORD        NOT AVBL
WAUSAU         CLOUDY    58  55  90 CALM      30.08R
MOSINEE        CLOUDY    57  57 100 CALM      30.10R
MARSHFIELD     CLOUDY    59  55  87 NE5       30.08R FOG
WISC RAPIDS    LGT RAIN  59  56  89 E7        30.07S FOG
STEVENS POINT  NOT AVBL
WAUPACA        NOT AVBL
SHAWANO        NOT AVBL
CLINTONVILLE   DRIZZLE   57  55  94 NE3       30.08S
WAUTOMA        NOT AVBL
$$

WIZ038-039-048-051-291300-
FOX VALLEY

CITY           SKY/WX    TMP DP  RH WIND       PRES   REMARKS
NWS GREEN BAY  CLOUDY    60  59  96 NE3       30.09S FOG
APPLETON       CLOUDY    59  59 100 VRB5      30.07R FOG
OSHKOSH        CLOUDY    60  58  92 E8        30.07R
FOND DU LAC    LGT RAIN  60  59  96 E6        30.05F
$$

WIZ022-050-052-291300-
EAST CENTRAL WISCONSIN

CITY           SKY/WX    TMP DP  RH WIND       PRES   REMARKS
EPHRAIM        CLOUDY    58  57  96 CALM      30.09S
STURGEON BAY   CLOUDY    59  55  88 S5        30.12R
MANITOWOC      NOT AVBL
SHEBOYGAN      CLOUDY    57  56  96 E8        30.07F FOG
$$

LMZ563-521-522-541>543-291300-
LAKESHORE

STATION/POSITION TIME  TEMP    WIND        PRES    VSBY  WAVE
                       AIR SEA DIR/SP/G                  HT/PER
                 (UTC) (F)     (DEG/KT/KT) (MB)    (MI)  (FT/S)
SHEBOYGAN LKSHOR 1100   52      20/  7/  8 1019.1S
ALGOMA MARINA    1114             CALM       N/A
NORTHPORT PIER   1100   61      CALM  /  1 1019.0S
N MID LAKE BUOY  1050   61 64  210/ 14/ 16 1018.7F         2/ 4
S GREEN BAY BUOY 1100   60 62  150/  6/  8 1020.2R
SISTER BAY LKSHO 1119   61        CALM       N/A
CHAMBERS ISLAND  1100   59     240/  2/  5 1019.3R
$$


USA.gov is the U.S. government's official web portal to all federal, state and local government web resources and services.